OBJECT G, 59884

Orbit data source: Space-Track

You're viewing an Uncataloged Satellite

Recently launched and/or uncataloged satellites may have evolving metadata. Metadata may include but not limited to: Owner, Maufacturer, Bus, Motor, and Mission.

OBJECT G, 59884 is a satellite owned by PLA SSF (CN) in LEO that was launched on Thu, 14 Dec 2023 UTC via a CHANG ZHENG 2F launch vehicle from the Jiuquan Satellite Launch Center, China (JSC). Unknown objects in Earth's orbit typically refer to objects detected orbiting the Earth but have not yet been identified or cataloged. These objects could be anything from previously untracked satellites, spent rocket stages, debris from satellite collisions, or even natural meteoroids temporarily captured by Earth's gravity.

Loading next visibility...
OBJECT G details
Identifier
59884, 2023-195G
Orbit
LEO
Last TLE update17 hours ago
Origin
Flag of CNPLA SSF (CN / PRC)
ManufacturerCAST
MissionSpacecraft
Bus & MotorUnknown
Mass~500 kg wet, 500 kg dry
Launch date (UTC)
2023-12-14 (1 year ago)
Launch vehicle
CHANG ZHENG 2F
Launch site
Jiuquan Satellite Launch Center, China (JSC)
Object typeUnknown
Shape & HBRUnknown
Radar Cross SectionMedium (>0.1 m² and <1 m²)

Expand to show TLE details & history

TLE from 17 hours ago
0 OBJECT G
1 59884U 23195G   25014.91386941  .00001532  00000-0  18346-3 0  9993
2 59884  49.9920 185.0703 0004201 212.1552 147.9133 14.89573780 34982
Epoch: 2025-01-14T21:55Z
Definitive object data (Epoch: 2025-01-14T21:55:58.317Z)
Latitude
Longitude101.46358°
Altitude602.295 km
Speed7.558 km/s
True Right ascension12h 20m 16s
True Declination0° 00' 00"
Sunlit
Object was in daylight at TLE epoch
Visualization TLE readout
Latitude-24.62401°
Longitude-59.36593°
Altitude603.122 km
Speed7.56 km/s
Apparent Right ascension02h 30m 16s
Apparent Declination-32° 41' 00"
Sunlit
Object is in daylight
Visualization observer readout
Local Sidereal Time15:39:49
Azimuth68.079° E
Elevation-74.269°
Doppler factor1
Orbital elements
Apogee altitude602.959 km
Perigee altitude597.096 km
Semi-major axis6,978.165 km
Eccentricity0.0004201
Inclination49.992°
RAAN185.0703°
Arg. of periapsis212.1552°
True anomaly147.93886°
Mean anomaly147.9133°
Eccentric anomaly147.92608°
Mean motion3.72333 °/min
BSTAR0.00018346
Orbital period96.69 mins
Loading maneuver chart data...
Loading historical data...
Loading historical data...
Loading historical data...
Loading historical data...
Loading historical data...
Loading historical data...
Loading historical data...

OBJECT G Visibility forecast

Observer location: undefined°, undefined

Span
Click to sort rows by Start time (UTC) header in descending order
Start Az.
Max El. time (UTC)
Max El. Az.
Max El.
End time (UTC)
End Az.
7 mins2025-01-15 15:55:02.938Z285.84° WNW2025-01-15 15:58:02.938Z337.685° N26.403°2025-01-15 16:02:02.938Z44.027° NE
5 mins2025-01-15 17:38:02.938Z325.424° NNW2025-01-15 17:40:02.938Z0.061° NNE20.537°2025-01-15 17:43:02.938Z49.304° ENE
7 mins2025-01-15 19:19:02.938Z320.597° NNW2025-01-15 19:22:02.938Z23.602° NE32.632°2025-01-15 19:26:02.938Z93.475° ESE
7 mins2025-01-15 21:00:02.938Z288.226° WNW2025-01-15 21:03:02.938Z223.079° SW35.636°2025-01-15 21:07:02.938Z149.514° SSE
5 mins2025-01-16 12:45:02.938Z165.214° S2025-01-16 12:47:02.938Z124.752° SE22.2°2025-01-16 12:50:02.938Z80.523° E
7 mins2025-01-16 14:24:02.938Z250.894° W2025-01-16 14:27:02.938Z305.971° NW41.055°2025-01-16 14:31:02.938Z49.517° ENE
|